Location: Bad Dürkheim
(49.4618°N, 8.1724°E)
Time: 15:06:21
(UTC+00:00)

Cosmos 1437 Rocket - Pass Details

Date: 14 June 2025
Orbit: 456 x 498 km, 81.2° (Epoch: 19 July)

Event Time Altitude Azimuth Distance (km) Brightness Sun altitude
Exits shadow 21:55:06 - 221° (SW) 1,832 5.2 -14.4°
Reaches altitude 10° 21:55:41 10° 224° (SW) 1,615 5.0 -14.4°
Maximum altitude 21:58:52 31° 289° (WNW) 842 4.2 -14.6°
Drops below altitude 10° 22:02:07 10° 354° (N) 1,648 6.5 -14.8°
Sets 22:04:24 0° 5° (N) 2,540 7.5 -14.9°
